Location: Strada George Coșbuc
(47.6577°N, 23.5639°E)
Time: 07:57:57
(UTC+02:00)

ISS - Pass Details

Date: 30 September 2017
Orbit: 401 x 407 km, 51.6° (Epoch: 25 November)

Event Time Altitude Azimuth Distance (km) Brightness Sun altitude
Rises 20:55:37 0° 261° (W) 2,330 1.2 -18.9°
Reaches altitude 10° 20:57:44 10° 266° (W) 1,472 0.0 -19.2°
Maximum altitude 21:00:58 54° 345° (NNW) 508 -3.2 -19.8°
Enters shadow 21:01:25 48° 18° (NNE) 542 -3.3 -19.8°
